Regional Weather Roundup
Issued by NWS

Home | Current Version | Previous Version | Text Only | Print | Product List | Glossary Off
Versions: 1 2 3 4 5 6 7 8 9 10 11 12 13 14 15 16 17 18 19 20 21 22 23 24 25 26 27 28 29 30 31 32 33 34 35 36 37 38 39 40 41 42 43 44 45 46 47 48 49 50

000
ASUS45 KPSR 200200
RWRAZ

PRELIMINARY ARIZONA REGIONAL HOURLY WEATHER ROUNDUP
NATIONAL WEATHER SERVICE PHOENIX AZ
700 PM MST FRI DEC 19 2014

NOTE: FAIR INDICATES FEW OR NO CLOUDS BELOW 12,000 FEET WITH NO
SIGNIFICANT WEATHER AND/OR OBSTRUCTIONS TO VISIBILITY.

AZZ001>003-036-200300-
NORTHWEST ARIZONA

CITY           SKY/WX    TMP DP  RH WIND       PRES   REMARKS
KINGMAN        MOCLDY    42  34  73 S9        30.18S
$$

AZZ004>008-015-016-018-200300-
NORTH CENTRAL ARIZONA

CITY           SKY/WX    TMP DP  RH WIND       PRES   REMARKS
GRAND CANYON   CLEAR     27  24  89 E5        30.22R WCI  22
PRESCOTT       CLEAR     36  23  59 CALM      30.20R
FLAGSTAFF      NOT AVBL
PAYSON         CLEAR     41  30  65 CALM      30.21R
PAGE           CLEAR     38  30  73 CALM      30.20S
$$

AZZ009>014-017-200300-
NORTHEAST ARIZONA

CITY           SKY/WX    TMP DP  RH WIND       PRES   REMARKS
WINSLOW        NOT AVBL
SAINT JOHNS    PTCLDY    32  28  85 NW3       30.20R
WINDOW ROCK    MOCLDY    32  26  78 CALM      30.20R
SHOW LOW       PTCLDY    28  25  86 N3        30.23R
$$

AZZ023-200300-
GREATER PHOENIX AREA

CITY           SKY/WX    TMP DP  RH WIND       PRES   REMARKS
PHOENIX        PTCLDY    57  41  55 SW7       30.14R
GLENDALE       PTCLDY    55  43  62 CALM      30.16R
LUKE AFB       CLEAR     53  43  67 W5        30.15R
DEER VALLEY    CLEAR     53  41  63 CALM      30.14R
SCOTTSDALE     CLEAR     56  39  53 CALM      30.16R
MESA-GATEWAY   CLEAR     54  39  58 W5        30.16R
$$

AZZ027-028-200300-
SOUTHWEST MARICOPA COUNTY AND PINAL COUNTY

CITY           SKY/WX    TMP DP  RH WIND       PRES   REMARKS
CASA GRANDE    CLEAR     52  39  62 CALM      30.15R
GILA BEND      FAIR      55  42  60 NW3       30.17R
$$

AZZ503-504-507>509-200300-
SOUTHEAST ARIZONA

CITY           SKY/WX    TMP DP  RH WIND       PRES   REMARKS
TUCSON         CLEAR     53  40  61 NW7       30.15R
DAVIS-MONTHAN  CLEAR     51  41  69 N7        30.13R
RYAN FIELD       N/A     52  46  82 W5        30.16R
NOGALES        CLEAR     45  30  55 NE3       30.13R
SIERRA VISTA   PTCLDY    45  32  61 CALM      30.16R
SAFFORD        CLEAR     43  38  82 NE7       30.16R
$$

AZZ020-021-025-026-031-200300-
SOUTHWEST ARIZONA

CITY           SKY/WX    TMP DP  RH WIND       PRES   REMARKS
YUMA           NOT AVBL
$$

CAZ031-033-041-043-047-048-061-200300-
SOUTHERN CALIFORNIA

CITY           SKY/WX    TMP DP  RH WIND       PRES   REMARKS
DOWNTOWN L.A.  CLOUDY    60  52  74 CALM      30.17R
L.A. AIRPORT   CLOUDY    60  50  69 W12       30.17R
SAN DIEGO      MOCLDY    61  52  72 N3        30.16R
BURBANK        MOCLDY    59  50  72 CALM      30.16R
ONTARIO        CLOUDY    59  43  55 W3        30.15R
RIVERSIDE      CLOUDY    60  44  55 CALM      30.16R
PALM SPRINGS   MOCLDY    62  40  44 CALM      30.17R
EL CENTRO NAS  CLOUDY    60  41  49 CALM      30.15R
IMPERIAL       MOCLDY    59  41  51 CALM      30.14R
BLYTHE         MOCLDY    57  47  69 E5        30.16R
$$

NVZ020-UTZ003-200300-
SOUTHERN NEVADA-UTAH

CITY           SKY/WX    TMP DP  RH WIND       PRES   REMARKS
LAS VEGAS      NOT AVBL
SALT LAKE CITY CLOUDY    42  25  50 E5        30.10R
$$

NMZ009-TXZ055-200300-
NEW MEXICO-WEST TEXAS

CITY           SKY/WX    TMP DP  RH WIND       PRES   REMARKS
ALBUQUERQUE    PTCLDY    39  23  52 N9        30.18R WCI  33
EL PASO        CLEAR     49  26  41 NW5       30.14R
$$


........................KEY........................
SKY/WX - SKY CONDITION/WEATHER
TMP    - TEMPERATURE IN FAHRENHEIT
DP     - DEW POINT IN FAHRENHEIT
RH     - RELATIVE HUMIDITY IN PERCENT
WIND   - DIRECTION AND SPEED IN MILES PER HOUR (MPH)
VRB    - VARIABLE WIND DIRECTION
PRES   - MEAN SEA LEVEL PRESSURE IN INCHES OF MERCURY
         F - FALLING PRESSURE   R - RISING PRESSURE
         S - STEADY PRESSURE
VSB    - VISIBILITY IN MILES
HX     - HEAT INDEX IN FAHRENHEIT
WCI    - WIND CHILL INDEX IN FAHRENHEIT
TC     - TEMPERATURE IN CELSIUS WHICH IS ALSO KNOWN AS
         TEMPERATURE IN CENTIGRADE
AFB    - AIR FORCE BASE
         LUKE AFB IS LUKE AIR FORCE BASE
         DAVIS-MONTHAN IS DAVIS-MONTHAN AIR FORCE BASE
NAS    - NAVAL AIR STATION
         EL CENTRO NAS IS EL CENTRO NAVAL AIR STATION
N/A    - NOT AVAILABLE



USA.gov is the U.S. government's official web portal to all federal, state and local government web resources and services.